GW0795 Weather Reports


time (UTC)temp
C
wind
direction
speed
KPH
gust
KPH
rain 1hr
cm
rain 24hr
cm
rain mn
cm
humidity
%
barometer
mb
20260904034543 13 98 0.0 0.0 0.00 0.30 0.30 88 1010.9
20260904034019 13 98 0.0 0.0 0.00 0.30 0.30 88 1010.8
20260904033507 13 98 0.0 0.0 0.00 0.30 0.30 88 1010.8
20260904033007 13 98 0.0 0.0 0.00 0.30 0.30 88 1010.6
20260904032507 13 98 0.0 0.0 0.00 0.30 0.30 87 1010.6
20260904032008 13 98 0.0 0.0 0.00 0.30 0.30 88 1010.4
20260904031515 13 98 0.0 0.0 0.00 0.30 0.30 88 1010.5
20260904031011 13 98 0.0 0.0 0.03 0.30 0.30 87 1010.4
20260904030510 13 98 0.0 0.0 0.03 0.30 0.30 87 1010.3
20260904030021 13 98 0.0 0.0 0.03 0.30 0.30 87 1010.4
20260904025511 13 98 0.0 0.0 0.03 0.30 0.30 86 1010.4
20260904025012 13 98 0.0 0.0 0.05 0.30 0.30 85 1010.4
20260904024528 13 98 0.0 0.0 0.05 0.30 0.30 86 1010.4
20260904024014 13 98 0.0 0.0 0.05 0.30 0.30 87 1010.5
20260904023515 14 98 0.0 0.0 0.05 0.30 0.30 86 1010.5
20260904023030 14 98 0.0 0.0 0.05 0.30 0.30 85 1010.5
20260904022524 14 98 0.0 3.2 0.05 0.30 0.30 85 1010.4
20260904022010 14 98 0.0 3.2 0.05 0.30 0.30 86 1010.4
20260904021510 14 98 0.0 3.2 0.05 0.30 0.30 85 1010.4
20260904021007 14 98 0.0 6.4 0.03 0.28 0.28 85 1010.4
20260904020507 14 105 1.6 9.7 0.03 0.28 0.28 84 1010.4
20260904020019 15 114 3.2 9.7 0.03 0.28 0.28 83 1010.3
20260904015513 15 113 3.2 4.8 0.03 0.28 0.28 82 1010.3
20260904015012 15 101 1.6 4.8 0.00 0.25 0.25 81 1010.2
20260904014524 15 105 3.2 9.7 0.00 0.25 0.25 79 1010.2
20260904014012 15 108 3.2 9.7 0.00 0.25 0.25 78 1010.3
20260904013516 16 19 3.2 9.7 0.00 0.25 0.25 74 1010.3
20260904013030 16 121 1.6 3.2 0.00 0.25 0.25 71 1010.3
20260904012517 16 261 0.0 3.2 0.00 0.25 0.25 70 1010.3
20260904012016 17 284 0.0 4.8 0.00 0.25 0.25 67 1010.3
20260904011556 17 286 0.0 4.8 0.00 0.25 0.25 66 1010.3
20260904011019 17 260 1.6 9.7 0.00 0.25 0.25 64 1010.3
20260904010508 17 284 3.2 9.7 0.00 0.28 0.25 63 1010.2
20260904010013 17 317 3.2 8.0 0.00 0.30 0.25 61 1010.2
20260904005515 17 150 1.6 8.0 0.00 0.30 0.25 63 1010.2
20260904005012 18 182 1.6 6.4 0.00 0.30 0.25 63 1010.2
20260904004518 18 326 1.6 6.4 0.00 0.30 0.25 63 1010.1
20260904004017 18 215 1.6 6.4 0.00 0.30 0.25 63 1010.1
20260904003521 18 180 0.0 14.5 0.00 0.33 0.25 64 1010.0
20260904003026 18 284 1.6 14.5 0.00 0.33 0.25 63 1009.9
20260904002516 18 88 3.2 12.9 0.00 0.33 0.25 62 1009.9
20260904002017 18 236 3.2 12.9 0.00 0.36 0.25 61 1009.9
20260904001530 18 28 1.6 11.3 0.00 0.41 0.25 59 1010.0
20260904001017 18 234 1.6 4.8 0.00 0.46 0.25 58 1009.9
20260904000518 18 205 1.6 6.4 0.00 0.46 0.25 57 1009.9
20260904000040 18 200 1.6 6.4 0.00 0.46 0.25 58 1009.8
20260903235517 18 271 1.6 4.8 0.00 0.46 0.25 55 1009.7
20260903235010 18 259 1.6 6.4 0.00 0.46 0.25 56 1009.7
20260903234526 19 5 3.2 6.4 0.00 0.46 0.25 55 1009.7
20260903234009 19 273 1.6 8.0 0.00 0.46 0.25 56 1009.7
20260903233509 18 261 3.2 8.0 0.00 0.46 0.25 55 1009.7
20260903233024 19 192 3.2 11.3 0.00 0.46 0.25 54 1009.7
20260903232515 18 278 4.8 11.3 0.00 0.46 0.25 56 1009.7
20260903232016 18 311 4.8 11.3 0.00 0.46 0.25 55 1009.7
20260903231527 18 11 3.2 9.7 0.00 0.46 0.25 55 1009.7
20260903231016 18 245 3.2 11.3 0.00 0.46 0.25 56 1009.7
20260903230515 18 337 4.8 11.3 0.00 0.48 0.25 57 1009.7
20260903230040 18 264 4.8 11.3 0.00 0.48 0.25 57 1009.7
20260903225519 18 311 6.4 11.3 0.00 0.51 0.25 55 1009.8
20260903225019 18 13 4.8 8.0 0.00 0.51 0.25 57 1009.8
20260903224532 18 260 3.2 8.0 0.00 0.53 0.25 58 1009.9
20260903224019 18 360 3.2 9.7 0.00 0.56 0.25 58 1009.9
20260903223510 17 325 3.2 9.7 0.00 0.58 0.25 60 1009.9
20260903223019 17 319 1.6 6.4 0.00 0.58 0.25 58 1010.0
20260903222512 17 277 1.6 6.4 0.00 0.61 0.25 61 1010.0
20260903222014 17 280 3.2 8.0 0.00 0.61 0.25 60 1010.0
20260903221527 18 266 3.2 11.3 0.00 0.61 0.25 60 1010.1
20260903221014 17 313 4.8 11.3 0.00 0.64 0.25 62 1010.0
20260903220516 17 288 3.2 9.7 0.00 0.64 0.25 62 1010.0
20260903220028 17 313 3.2 9.7 0.00 0.66 0.25 62 1010.1
20260903215519 17 304 0.0 6.4 0.00 0.66 0.25 62 1010.1
20260903215018 17 270 3.2 6.4 0.00 0.69 0.25 65 1010.1
20260903214535 17 280 1.6 9.7 0.00 0.69 0.25 66 1010.0
20260903214019 17 295 4.8 9.7 0.00 0.71 0.25 66 1010.1
20260903213518 17 286 3.2 9.7 0.00 0.71 0.25 66 1010.2
20260903213037 17 261 3.2 9.7 0.00 0.74 0.25 67 1010.1
20260903212501 17 283 1.6 4.8 0.00 0.76 0.25 67 1010.1
20260903212002 16 287 3.2 11.3 0.00 0.76 0.25 68 1010.1
20260903211501 17 290 1.6 11.3 0.00 0.76 0.25 68 1010.1
20260903211001 17 263 1.6 6.4 0.00 0.79 0.25 67 1010.0
20260903210505 17 247 1.6 6.4 0.00 0.79 0.25 65 1010.0
20260903210006 17 211 0.0 4.8 0.00 0.79 0.25 69 1010.0
20260903205505 17 309 0.0 11.3 0.00 0.79 0.25 67 1010.0
20260903205005 17 191 3.2 11.3 0.00 0.81 0.25 66 1009.9
20260903204510 17 220 1.6 6.4 0.00 0.81 0.25 68 1009.9
20260903204009 17 280 0.0 6.4 0.00 0.81 0.25 68 1009.9
20260903203507 17 309 3.2 6.4 0.00 0.81 0.25 69 1009.9
20260903203024 17 213 3.2 9.7 0.00 0.81 0.25 68 1009.9
20260903202508 17 294 1.6 9.7 0.00 0.81 0.25 68 1009.9
20260903202002 17 279 3.2 6.4 0.00 0.81 0.25 68 1009.9
20260903201501 16 271 3.2 6.4 0.00 0.81 0.25 68 1009.9
20260903201001 16 304 1.6 6.4 0.00 0.81 0.25 67 1009.9
20260903200502 16 184 1.6 3.2 0.00 0.81 0.25 70 1009.9
20260903200004 16 242 0.0 3.2 0.00 0.81 0.25 70 1010.0
20260903195501 16 138 0.0 8.0 0.00 0.81 0.25 71 1010.0
20260903195005 16 141 1.6 8.0 0.00 0.81 0.25 72 1010.0
20260903194505 16 165 1.6 8.0 0.00 0.81 0.25 71 1010.0
20260903194010 16 145 0.0 9.7 0.00 0.81 0.25 73 1010.0
20260903193509 16 207 3.2 9.7 0.00 0.81 0.25 71 1009.9
20260903193017 16 217 1.6 3.2 0.00 0.81 0.25 72 1010.0
20260903192507 16 237 0.0 8.0 0.00 0.84 0.25 71 1009.9
20260903192008 16 184 1.6 11.3 0.00 0.84 0.25 70 1009.9
20260903191510 16 209 3.2 11.3 0.00 0.84 0.25 69 1009.9
20260903191006 17 200 0.0 8.0 0.00 0.84 0.25 68 1009.9
20260903190502 16 220 3.2 8.0 0.00 0.84 0.25 71 1010.0
20260903190002 16 170 3.2 6.4 0.00 0.84 0.25 72 1010.0
20260903185502 15 190 1.6 6.4 0.00 0.84 0.25 74 1010.0
20260903185001 15 191 1.6 6.4 0.00 0.84 0.25 74 1010.0
20260903184506 15 208 0.0 3.2 0.00 0.84 0.25 73 1010.0
20260903184008 16 336 0.0 3.2 0.00 0.84 0.25 71 1009.9
20260903183506 15 188 0.0 9.7 0.00 0.84 0.25 72 1009.9
20260903183010 16 197 3.2 9.7 0.00 0.84 0.25 71 1009.8
20260903182507 16 223 0.0 8.0 0.00 0.84 0.25 75 1009.8
20260903182009 15 252 1.6 8.0 0.00 0.84 0.25 74 1009.8
20260903181515 15 181 1.6 8.0 0.00 0.84 0.25 76 1009.8
20260903181008 15 233 1.6 8.0 0.00 0.84 0.25 77 1009.8
20260903180513 15 184 0.0 6.4 0.00 0.84 0.25 76 1009.9
20260903180021 15 171 3.2 6.4 0.00 0.84 0.25 74 1009.9
20260903175507 15 207 0.0 11.3 0.00 0.84 0.25 77 1009.8
20260903175003 15 176 4.8 9.7 0.00 0.84 0.25 76 1009.8
20260903174505 15 195 3.2 6.4 0.00 0.84 0.25 75 1009.7
20260903174004 15 216 1.6 6.4 0.00 0.84 0.25 77 1009.7
20260903173504 15 121 1.6 8.0 0.00 0.84 0.25 77 1009.7
20260903173008 15 198 3.2 14.5 0.00 0.84 0.25 77 1009.6
20260903172508 15 169 4.8 14.5 0.00 0.84 0.25 76 1009.6
20260903172007 15 117 3.2 14.5 0.00 0.84 0.25 77 1009.5
20260903171512 15 200 4.8 12.9 0.00 0.84 0.25 79 1009.5
20260903171008 15 152 1.6 6.4 0.00 0.84 0.25 80 1009.5
20260903170510 14 225 3.2 6.4 0.00 0.84 0.25 80 1009.5
20260903170018 13 101 1.6 8.0 0.00 0.84 0.25 83 1009.5
20260903165512 13 172 3.2 8.0 0.00 0.84 0.25 82 1009.5
20260903165012 13 156 0.0 6.4 0.00 0.84 0.25 84 1009.5
20260903164517 13 196 3.2 11.3 0.00 0.84 0.25 84 1009.5
20260903164011 13 90 1.6 14.5 0.00 0.84 0.25 84 1009.5
20260903163503 13 97 8.0 14.5 0.00 0.84 0.25 84 1009.5
20260903163007 13 115 3.2 9.7 0.00 0.84 0.25 84 1009.5
20260903162508 13 83 0.0 6.4 0.00 0.84 0.25 86 1009.5
20260903162006 13 110 3.2 4.8 0.00 0.84 0.25 84 1009.5
20260903161512 13 140 0.0 11.3 0.00 0.84 0.25 86 1009.5
20260903161013 13 127 1.6 11.3 0.00 0.84 0.25 85 1009.4
20260903160509 13 79 3.2 4.8 0.00 0.84 0.25 84 1009.4
20260903160028 13 101 1.6 6.4 0.00 0.84 0.25 84 1009.4
20260903155515 13 86 1.6 6.4 0.00 0.84 0.25 85 1009.5
20260903155010 13 200 1.6 6.4 0.00 0.84 0.25 85 1009.6
20260903154524 13 134 1.6 9.7 0.00 0.84 0.25 86 1009.5
20260903154012 13 196 3.2 9.7 0.00 0.84 0.25 85 1009.5
20260903153514 13 171 1.6 8.0 0.00 0.84 0.25 85 1009.5
20260903153020 13 179 0.0 3.2 0.00 0.84 0.25 87 1009.5
20260903152514 13 99 1.6 6.4 0.00 0.84 0.25 87 1009.3
20260903152007 12 142 0.0 6.4 0.00 0.84 0.25 87 1009.3
20260903151508 12 158 0.0 3.2 0.00 0.84 0.25 89 1009.3
20260903151008 12 134 0.0 3.2 0.03 0.84 0.25 89 1009.3
20260903150507 12 87 1.6 3.2 0.03 0.84 0.25 90 1009.3
20260903150023 12 110 1.6 3.2 0.03 0.84 0.25 90 1009.3
20260903145512 11 96 0.0 3.2 0.03 0.84 0.25 91 1009.3
20260903145016 11 96 0.0 3.2 0.03 0.84 0.25 91 1009.2
20260903144540 11 42 0.0 3.2 0.03 0.84 0.25 91 1009.1
20260903144013 11 67 0.0 3.2 0.03 0.84 0.25 91 1009.1
20260903143514 11 108 0.0 3.2 0.03 0.84 0.25 91 1009.1
20260903143039 11 108 0.0 3.2 0.05 0.84 0.25 91 1009.0
20260903142514 11 108 0.0 3.2 0.05 0.84 0.25 90 1009.0
20260903142015 11 108 0.0 3.2 0.05 0.84 0.25 91 1009.0
20260903141526 11 115 0.0 6.4 0.05 0.84 0.25 90 1008.9
20260903141020 11 115 1.6 6.4 0.03 0.81 0.23 90 1008.9
20260903140505 11 103 0.0 4.8 0.05 0.81 0.23 91 1008.9
20260903140015 11 103 0.0 4.8 0.05 0.81 0.23 91 1009.1
20260903135510 11 115 0.0 0.0 0.08 0.81 0.23 91 1009.1
20260903135008 11 115 0.0 0.0 0.08 0.81 0.23 91 1008.9
20260903134515 11 115 0.0 0.0 0.10 0.81 0.23 91 1009.0
20260903134011 11 96 0.0 0.0 0.10 0.81 0.23 91 1008.9
20260903133514 11 96 0.0 0.0 0.10 0.81 0.23 91 1008.8
20260903133027 11 96 0.0 0.0 0.08 0.79 0.20 91 1008.8
20260903132513 11 96 0.0 0.0 0.08 0.79 0.20 91 1008.8
20260903132016 11 96 0.0 0.0 0.10 0.79 0.20 91 1008.8
20260903131528 11 96 0.0 3.2 0.13 0.79 0.20 91 1008.7
20260903131014 11 96 0.0 3.2 0.15 0.79 0.20 91 1008.7
20260903130514 11 96 1.6 3.2 0.13 0.76 0.18 90 1008.7
20260903130028 11 88 1.6 3.2 0.18 0.76 0.18 90 1008.7
20260903125516 11 93 0.0 1.6 0.15 0.74 0.15 90 1008.7
20260903125014 11 93 0.0 1.6 0.15 0.74 0.15 90 1008.7
20260903124513 11 103 0.0 3.2 0.13 0.71 0.13 90 1008.6
20260903124010 11 86 0.0 3.2 0.13 0.71 0.13 90 1008.7
20260903123511 11 162 0.0 0.0 0.13 0.71 0.13 89 1008.7
20260903123024 11 162 0.0 0.0 0.13 0.71 0.13 89 1008.7
20260903122504 11 163 0.0 0.0 0.13 0.71 0.13 89 1008.7
20260903122002 11 206 0.0 0.0 0.10 0.69 0.10 88 1008.8
20260903121514 11 206 0.0 0.0 0.08 0.66 0.08 87 1008.6
20260903121005 11 206 0.0 8.0 0.05 0.64 0.05 86 1008.7
20260903120506 11 188 0.0 8.0 0.05 0.64 0.05 84 1008.6
20260903120019 11 198 0.0 4.8 0.00 0.58 0.00 83 1008.7
20260903115504 12 198 0.0 4.8 0.00 0.58 0.00 82 1008.4
20260903115009 12 127 0.0 3.2 0.00 0.58 0.00 82 1008.3
20260903114513 12 80 0.0 3.2 0.00 0.58 0.00 82 1008.2
20260903114009 12 111 0.0 3.2 0.00 0.58 0.00 82 1008.1
20260903113510 12 115 0.0 3.2 0.00 0.58 0.00 82 1008.1
20260903113022 12 108 1.6 6.4 0.00 0.58 0.00 82 1008.0
20260903112514 12 91 1.6 6.4 0.00 0.58 0.00 81 1008.0
20260903112015 12 88 1.6 8.0 0.00 0.58 0.00 82 1008.0
20260903111508 12 127 3.2 9.7 0.00 0.58 0.00 82 1008.0
20260903111003 12 105 3.2 9.7 0.00 0.58 0.00 81 1008.0
20260903110504 12 94 3.2 6.4 0.00 0.58 0.00 81 1007.9
20260903110005 12 73 1.6 4.8 0.00 0.58 0.00 82 1008.0
20260903105504 12 86 0.0 3.2 0.00 0.58 0.00 82 1007.9
20260903105006 12 101 0.0 3.2 0.00 0.58 0.00 83 1007.9
20260903104509 12 84 1.6 4.8 0.00 0.58 0.00 82 1007.9
20260903104006 12 78 1.6 4.8 0.00 0.58 0.00 82 1007.9
20260903103508 12 101 1.6 3.2 0.00 0.58 0.00 83 1007.9
20260903103015 12 188 0.0 3.2 0.00 0.58 0.00 84 1008.0
20260903102510 12 103 0.0 3.2 0.00 0.58 0.00 84 1008.0
20260903102009 12 103 1.6 3.2 0.00 0.58 0.00 83 1008.0
20260903101526 12 100 1.6 4.8 0.00 0.58 0.00 83 1008.0
20260903101012 12 102 1.6 4.8 0.00 0.58 0.00 83 1008.0
20260903100515 12 88 0.0 4.8 0.00 0.58 0.00 83 1008.0
20260903100015 12 86 0.0 3.2 0.00 0.58 0.00 83 1008.0
20260903095501 12 90 1.6 4.8 0.00 0.58 0.00 83 1008.0
20260903095006 12 115 1.6 4.8 0.00 0.58 0.00 83 1007.9
20260903094520 12 96 1.6 4.8 0.00 0.58 0.00 84 1007.9
20260903094006 12 81 0.0 0.0 0.00 0.58 0.00 84 1008.0
20260903093507 12 81 0.0 0.0 0.00 0.58 0.00 85 1008.0
20260903093014 12 81 0.0 0.0 0.00 0.58 0.00 85 1008.0
20260903092509 12 81 0.0 0.0 0.00 0.58 0.00 85 1008.0
20260903092010 12 81 0.0 4.8 0.00 0.58 0.00 83 1008.0
20260903091525 12 81 1.6 4.8 0.00 0.58 0.00 83 1008.0
20260903091012 12 126 0.0 3.2 0.00 0.58 0.00 84 1008.0
20260903090512 12 146 0.0 3.2 0.00 0.58 0.00 83 1008.0
20260903090025 12 149 0.0 0.0 0.00 0.58 0.00 83 1007.9
20260903085515 12 86 0.0 0.0 0.00 0.58 0.00 83 1007.9
20260903085014 12 182 0.0 0.0 0.00 0.58 0.00 84 1007.9
20260903084530 12 177 0.0 0.0 0.00 0.58 0.00 84 1008.0
20260903084004 12 92 0.0 3.2 0.00 0.58 0.00 84 1007.9
20260903083510 12 93 0.0 3.2 0.00 0.58 0.00 85 1007.9
20260903083011 12 75 0.0 3.2 0.00 0.58 0.00 85 1007.9
20260903082509 12 94 0.0 3.2 0.00 0.58 0.00 85 1007.8
20260903082009 12 96 0.0 3.2 0.00 0.58 0.00 86 1007.8
20260903081516 12 89 0.0 3.2 0.00 0.58 0.00 86 1007.7
20260903081009 12 92 0.0 3.2 0.00 0.58 0.00 86 1007.8
20260903080510 12 92 0.0 3.2 0.00 0.58 0.00 85 1007.8
20260903080020 12 92 0.0 3.2 0.00 0.58 0.00 85 1007.8
20260903075512 12 105 0.0 6.4 0.00 0.58 0.00 84 1007.8
20260903075012 12 95 1.6 6.4 0.00 0.58 0.00 84 1007.9
20260903074536 12 88 1.6 4.8 0.00 0.58 0.00 84 1007.8
20260903074016 12 96 0.0 0.0 0.00 0.58 0.00 85 1007.8
20260903073517 12 99 0.0 0.0 0.00 0.58 0.00 86 1007.7
20260903073033 12 91 0.0 0.0 0.00 0.58 0.00 87 1007.7
20260903072505 11 119 0.0 0.0 0.00 0.58 0.00 88 1007.7
20260903072007 11 228 0.0 0.0 0.00 0.58 0.00 89 1007.7
20260903071515 11 228 0.0 0.0 0.00 0.58 0.00 88 1007.6
20260903071010 11 228 0.0 0.0 0.00 0.58 0.00 88 1007.6
20260903070510 11 228 0.0 0.0 0.00 0.58 0.00 88 1007.6
20260903070023 11 228 0.0 0.0 0.00 0.58 0.00 87 1007.6
20260903065512 12 228 0.0 3.2 0.00 0.58 0.58 87 1007.7
20260903065014 11 160 0.0 3.2 0.00 0.58 0.58 87 1007.6
20260903064527 11 170 0.0 3.2 0.00 0.58 0.58 87 1007.6
20260903064014 11 233 0.0 0.0 0.00 0.58 0.58 86 1007.6
20260903063514 12 233 0.0 0.0 0.00 0.58 0.58 85 1007.6
20260903063028 12 177 0.0 4.8 0.00 0.58 0.58 84 1007.6
20260903062516 12 177 0.0 8.0 0.00 0.58 0.58 84 1007.6
20260903062020 12 106 0.0 8.0 0.00 0.58 0.58 84 1007.7
20260903061532 12 165 0.0 3.2 0.00 0.58 0.58 85 1007.6
20260903061008 12 159 0.0 1.6 0.00 0.58 0.58 85 1007.7
20260903060507 12 159 0.0 4.8 0.00 0.58 0.58 84 1007.7
20260903060016 12 348 0.0 6.4 0.00 0.58 0.58 85 1007.7
20260903055512 12 159 0.0 6.4 0.00 0.58 0.58 86 1007.7
20260903055014 12 101 0.0 4.8 0.00 0.58 0.58 87 1007.7
20260903054523 12 100 0.0 4.8 0.00 0.58 0.58 87 1007.8
20260903054016 12 166 1.6 4.8 0.00 0.58 0.58 88 1007.8
20260903053513 12 271 0.0 0.0 0.00 0.58 0.58 89 1007.8
20260903053027 12 269 0.0 0.0 0.00 0.58 0.58 90 1007.8
20260903052514 12 137 0.0 0.0 0.00 0.58 0.58 91 1007.7
20260903052016 12 134 0.0 0.0 0.00 0.58 0.58 91 1007.7
20260903051551 12 134 0.0 0.0 0.00 0.58 0.58 90 1007.7
20260903051021 12 134 0.0 0.0 0.00 0.58 0.58 90 1007.7
20260903050519 12 134 0.0 0.0 0.00 0.58 0.58 90 1007.7
20260903050033 12 134 0.0 0.0 0.00 0.58 0.58 90 1007.7
20260903045508 12 98 0.0 0.0 0.00 0.58 0.58 89 1007.8
20260903045009 12 98 0.0 0.0 0.00 0.58 0.58 89 1007.8
20260903044520 12 98 0.0 0.0 0.00 0.58 0.58 89 1007.7
20260903044010 12 98 0.0 0.0 0.00 0.58 0.58 89 1007.6
20260903043503 12 98 0.0 0.0 0.00 0.58 0.58 90 1007.6
20260903043005 12 98 0.0 0.0 0.00 0.58 0.58 89 1007.6
20260903042506 12 98 0.0 0.0 0.00 0.58 0.58 89 1007.6
20260903042004 12 98 0.0 0.0 0.00 0.58 0.58 88 1007.6
20260903041516 13 319 0.0 1.6 0.00 0.58 0.58 88 1007.4
20260903041004 13 319 0.0 3.2 0.00 0.58 0.58 87 1007.4
20260903040504 13 228 0.0 3.2 0.00 0.58 0.58 87 1007.4
20260903040016 13 224 0.0 3.2 0.00 0.58 0.58 87 1007.3
20260903035509 13 186 0.0 3.2 0.00 0.58 0.58 87 1007.3
20260903035008 13 219 0.0 4.8 0.00 0.58 0.58 86 1007.2